LIRFLIRA

Guest
Details From LIRF - Roma Fiumicino Leonardo Da Vinci
To LIRA - Ciampino
Flight Number -
Tags Generated
Created
Modified
Stats Distance 16 nm / 30 km
Max Altitude 0 ft / 0 m
Waypoints 2
Social Downloads 2
Likes 0
Share VATSIM

Download

Looking for another format? Having issues loading an existing format? Contact us
Advertisement - Login to hide

Notes

Generated

Route

LIRF LIRA

ID Type Via Altitude Latitude Longitude Leg Dist Tot Dist Heading (true) Name
O LIRF APT - 0 ft / 0 m 41.79932˚ 12.23212˚ - 0 nm - -
O LIRA APT - 0 ft / 0 m 41.80806˚ 12.58883˚ 15 nm 15 nm 88° / 88° -

Altitude Profile

Advertisement - Login to hide

LIRF

Details ICAO LIRF (FCO)
Name Roma Fiumicino Leonardo Da Vinci
Region Italy
Timezone Europe/Rome (UTC+2.0)
Stats Elevation 15 ft / 5 m (AMSL)
Location 41.810809° 12.250897°
Runways 3
Magnetic Variation 3.041° E

METAR

LIRF 220050Z 16005KT 9999 SCT045 18/15 Q1013 NOSIG

Decode

TAF

TAF LIRF 212300Z 2200/2306 VRB05KT 9999 SCT030 TEMPO 2208/2212 4000 SHRA BECMG 2209/2211 20012KT BECMG 2218/2220 VRB05KT

Decode

Departure Runways

ID Width Length Bearing (true) Bearing (mag) Surface Threshold Offset Overrun Length
07 148 ft / 45 m 10,835 ft / 3,302 m 69.67° 66.63° Asphalt 1,365 ft / 416 m 0 ft / 0 m
16L 197 ft / 60 m 12,832 ft / 3,911 m 162.67° 159.63° Asphalt 0 ft / 0 m 0 ft / 0 m
16R 197 ft / 60 m 12,822 ft / 3,908 m 162.66° 159.62° Asphalt 0 ft / 0 m 0 ft / 0 m
25 148 ft / 45 m 10,835 ft / 3,302 m 249.70° 246.66° Asphalt 0 ft / 0 m 0 ft / 0 m
34L 197 ft / 60 m 12,822 ft / 3,908 m 342.67° 339.63° Asphalt 1,053 ft / 321 m 0 ft / 0 m
34R 197 ft / 60 m 12,832 ft / 3,911 m 342.68° 339.64° Asphalt 0 ft / 0 m 0 ft / 0 m

LIRA

Details ICAO LIRA (CIA)
Name CIAMPINO
Region Italy
Timezone Europe/Rome (UTC+2.0)
Stats Elevation 427 ft / 130 m (AMSL)
Location 41.799228° 12.594917°
Runways 1
Magnetic Variation 3.103° E

METAR

LIRA 220050Z 16005KT 9999 BKN040 18/15 Q1013

Decode

TAF

TAF LIRA 212300Z 2200/2224 VRB05KT 9999 SCT030 BECMG 2209/2211 23010KT TEMPO 2221/2224 RA

Decode

Destination Runways

ID Width Length Bearing (true) Bearing (mag) Surface Threshold Offset Overrun Length
15 154 ft / 47 m 7,246 ft / 2,209 m 152.79° 149.69° Asphalt 0 ft / 0 m 0 ft / 0 m
33 154 ft / 47 m 7,246 ft / 2,209 m 332.80° 329.70° Asphalt 0 ft / 0 m 0 ft / 0 m

Approach Navaids

Runway Type Ident Frequency Range Bearing (true) Bearing (mag) Slope Elevation
15 Localiser CIA 109.90 MHz 18 nm / 33 km 152.81° 149.71° - 426 ft / 130 m (AMSL)
15 Glidescope CIA 109.90 MHz 10 nm / 19 km 152.79° 149.69° 3.00° 384 ft / 117 m (AMSL)

Popular Alternatives